STARLINK-3799, 52382

Orbit data source: Space-Track

STARLINK-3799, 52382 is a payload satellite owned by SpaceX/Seattle (US) in LEO that was launched on Fri, 29 Apr 2022 UTC via an FALCON 9 launch vehicle from the Air Force Eastern Test Range (AFETR). Payload-class satellites include a variety of spacecraft equipped with specific instruments for various scientific and technological missions. These include communications satellites like Starlink; space stations such as the ISS; scientific satellites like the Hubble; Earth observation satellites from companies like Planet Labs, Umbra, and HawkEye 360; GPS; miniature CubeSats for education and research; and military/defense satellites.

Loading next visibility...
Identifier
52382, 2022-045BD
Orbit
LEO
Country
Flag of USUS
Related business
Manufacturer
SpaceX/Seattle
Mission
Operational Commercial Communications
Bus & Motor
STARLINK, Unknown motor
Mass
297 kg wet, ~275 kg dry
Launch date (UTC)
2022-04-29 (4 years ago)
Launch vehicle
FALCON 9
Launch site
Air Force Eastern Test Range (AFETR)
Object type
Payload
Rocket body
Debris
Shape & HBR
Box + 1 Pan, 10.1 m
Radar Cross Section
11.087 m², Large (>1 m²)

Expand to show TLE details & history
Last TLE update: 7 hours ago

TLE from 7 hours ago
0 STARLINK-3799
1 52382U 22045BD  26119.83335647  .00030353  00000-0  14838-2 0  9991
2 52382  53.2162 318.4226 0001796  73.4801 318.0532 15.18003952  5835
Epoch: 2026-04-29T20:00Z
TLE epoch observation values (Epoch: 2026-04-29T20:00:01.999Z)
Latitude
24.82046°
Longitude
-179.26061°
Altitude
511.919 km
Speed
7.612 km/s
True Right ascension
22h 34m 08s
True Declination
24° 41' 06"
Sunlit
Object was in daylight at epoch
Visualization orbit readout
Latitude
Unknown
Longitude
Unknown
Altitude
Unknown
Speed
Unknown
Apparent Right ascension
Unknown
Apparent Declination
Unknown
Sunlit
N/A
Visualization observer readout
Local Sidereal Time
10:29:00
Azimuth
Unknown
Elevation
Unknown
Doppler factor
Unknown
Orbital elements
Apogee altitude
513.357 km
Perigee altitude
510.882 km
Semi-major axis
6,890.257 km
Eccentricity
0.00018
Inclination
53.2162°
RAAN
318.4226°
Arg. of periapsis
73.4801°
True anomaly
318.03944°
Mean anomaly
318.0532°
Eccentric anomaly
318.04632°
Mean motion
3.79481 °/min
Orbital period
94.87 mins
BSTAR
0.0014838
Loading maneuver chart data...
Computing Atmospheric mass density...
Loading historical data...
Loading historical data...
Loading historical data...
Loading historical data...
Loading historical data...
Loading historical data...
Loading historical data...

Documentation

Showing up to 5 results
|